Regional Weather Roundup
Issued by NWS Newport/Morehead, NC

Current Version | Previous Version | Text Only | Print | Product List | Glossary On
Versions: 1 2 3 4 5 6 7 8 9 10 11 12 13 14 15 16 17 18 19 20 21 22 23 24 25 26 27 28 29 30 31 32 33 34 35 36 37 38 39 40 41 42 43 44 45 46 47 48 49 50
000
ASUS42 KMHX 310225
RWRMHX
WEATHER ROUNDUP FOR EASTERN NORTH CAROLINA
NATIONAL WEATHER SERVICE NEWPORT/MOREHEAD CITY NC
1000 PM EDT MON MAY 30 2016

NOTE: "FAIR" INDICATES FEW OR NO CLOUDS BELOW 12,000 FEET
WITH NO SIGNIFICANT WEATHER AND/OR OBSTRUCTIONS TO VISIBILITY

NCZ015>017-031-032-045>047-102-103-310300-
NORTH COAST

CITY           SKY/WX    TMP DP  RH WIND       PRES   REMARKS
EDENTON        CLOUDY   N/A N/A N/A CALM      29.96S
ELIZABETH CITY LGT RAIN  71  69  93 E6        29.96F
KITTY HAWK     CLOUDY    67  67  97 CALM      29.96S
MANTEO         NOT AVBL

$$

NCZ045>047-081-094-103-104-310300-
CENTRAL COAST

CITY           SKY/WX    TMP DP  RH WIND       PRES   REMARKS
FRISCO         MOCLDY    73  71  93 CALM      29.95R

$$

NCZ095-097-098-100-101-310300-
SOUTHERN COAST

CITY           SKY/WX    TMP DP  RH WIND       PRES   REMARKS
BEAUFORT       CLEAR     73  71  93 SE3       29.94R
CEDAR ISLAND   NOT AVBL
JACKSONVILLE   CLOUDY    76  71  85 E8        29.93R
PINEY ISLAND   NOT AVBL
WILMINGTON     MOCLDY    74  72  93 CALM      29.92R


$$

NCZ011>013-027>030-043-044-078>080-089-090>093-098-310300-
COASTAL PLAIN

CITY           SKY/WX    TMP DP  RH WIND       PRES   REMARKS
AHOSKIE        PTCLDY    71  70  95 CALM      29.97R
CLINTON        MOCLDY    73  73 100 CALM      29.95R
ELIZABETHTOWN  CLOUDY    71  71 100 CALM      29.93R
GOLDSBORO      PTCLDY    72  72 100 E5        29.93S
GREENVILLE     CLOUDY    72  72 100 CALM      29.98R
HAVELOCK       PTCLDY    73  71  93 SE6       29.95S
KENANSVILLE    CLOUDY    72  71  98 CALM      29.96R
KINSTON        PTCLDY    73  70  92 NE3       29.96R
NEW BERN       PTCLDY    73  70  90 E3        29.96R
RICHLANDS      PTCLDY    73  71  93 E5        29.95R
ROCKY MOUNT    CLOUDY    73  70  90 CALM      29.95S
WASHINGTON     MOCLDY    70  69  97 CALM      29.95S
WHITEVILLE     CLOUDY    73  71  94 E3        29.92S

$$

AMZ130-135-150-152-154-156-158-170-250-252-270-ANZ085-086-088-633-658-670-310300-
MARINE OBSERVATIONS

STATION/POSITION TIME  TEMP    WIND        PRES    WAVE   SWELL
                       AIR SEA DIR/SP/G            HT/PER HT/PER
                 (UTC) (F)     (DEG/KT/KT) (MB)    (FT/S) (FT/S)
CHESAPEAKE LIGHT 0200   69     150/ 10/ 11 1015.5
64 E VA BEACH    0150   65 63   70/  6/  6 1015.5    6/ 7   5/ 7
DUCK             0200      59              1014.1
2 E DUCK         0111      61                N/A     3/ 7
OREGON INLET     0100      74              1014.3
13E OREGON INLT  0200      66                N/A     6/ 6   5/ 6
HATTERAS CG      0200      74              1013.7
DIAMOND BUOY     0150   76 81  220/ 10/ 12 1013.8    6/ 8   5/ 8
CAPE LOOKOUT     0200   74      70/  4/  4 1013.7
BEAUFORT LAB     0200      76              1013.2
30 SE NEW RVR IN 0125      76                N/A     5/ 8
27 SE WRIGHTSVLE 0208   75 76  280/  2/  4 1013.4
5 SE WRIGHTSVLE  0108   77 77  110/  6/ 10 1013.5
225 S CAPE HAT   0150   76 76  160/ 12/ 14 1015.5    6/ 8   5/ 8
41 SE CHARLESTON 0150   74 77  220/ 12/ 16 1011.7    4/ 9   3/ 9

$$




USA.gov is the U.S. government's official web portal to all federal, state and local government web resources and services.